CW7054 Weather Reports


Display with metric or nautical units.
time (UTC)temp
F
wind
direction
speed
MPH
gust
MPH
rain 1hr
in
rain 24hr
in
rain mn
in
humidity
%
barometer
mb
20260903071511 71 75 0.0 2.0 0.00 0.09 0.00 94 1014.7
20260903070015 71 74 0.0 0.0 0.00 0.09 0.00 93 1014.6
20260903064503 71 74 0.0 0.0 0.00 0.10 0.00 93 1015.4
20260903063108 70 74 0.0 1.0 0.00 0.10 0.00 93 1015.7
20260903061607 70 74 0.0 0.0 0.00 0.10 0.00 92 1016.1
20260903060055 70 74 0.0 0.0 0.00 0.10 0.00 92 1016.2
20260903054601 70 74 0.0 2.0 0.00 0.10 0.00 92 1016.4
20260903053052 70 74 0.0 1.0 0.00 0.10 0.00 91 1016.5
20260903051553 70 74 0.0 1.0 0.00 0.10 0.00 91 1016.8
20260903050048 70 74 0.0 2.0 0.00 0.10 0.00 91 1017.0
20260903044552 70 74 0.0 1.0 0.00 0.11 0.00 91 1017.2
20260903043046 70 74 0.0 4.0 0.00 0.11 0.00 91 1017.5
20260903041552 70 71 0.0 1.0 0.00 0.11 0.00 91 1017.5
20260903040038 70 71 0.0 5.0 0.00 0.11 0.00 90 1017.2
20260903034536 70 69 0.0 2.0 0.00 0.12 0.11 90 1017.1
20260903033035 70 69 0.0 1.0 0.00 0.12 0.11 90 1017.3
20260903031534 70 68 0.0 3.0 0.00 0.12 0.11 90 1017.9
20260903030035 70 69 0.0 2.0 0.00 0.12 0.11 90 1017.9
20260903024534 69 69 0.0 5.0 0.00 0.13 0.11 90 1018.1
20260903023035 69 74 0.0 2.0 0.00 0.13 0.11 90 1017.8
20260903021533 69 74 0.0 8.0 0.00 0.13 0.11 90 1018.0
20260903020039 69 56 0.0 2.0 0.00 0.13 0.11 90 1018.2
20260903014543 69 55 0.0 2.0 0.00 0.14 0.11 90 1018.1
20260903013030 69 69 0.0 2.0 0.00 0.14 0.11 90 1018.6
20260903011533 69 41 0.0 3.0 0.00 0.14 0.11 90 1019.1
20260903010034 69 40 0.0 2.0 0.00 0.14 0.11 90 1019.0
20260903004530 69 38 0.0 4.0 0.00 0.15 0.11 90 1018.6
20260903003030 69 81 0.0 5.0 0.00 0.15 0.11 89 1017.8
20260903001529 69 69 0.0 4.0 0.00 0.15 0.11 89 1017.4
20260903000028 69 78 1.0 9.0 0.00 0.15 0.11 89 1017.9
20260902234528 68 64 0.0 3.0 0.00 0.16 0.11 89 1018.3
20260902233030 68 83 0.0 7.0 0.00 0.16 0.11 89 1018.6
20260902231540 68 67 0.0 4.0 0.00 0.16 0.11 89 1018.8
20260902230028 68 70 1.0 7.0 0.00 0.16 0.11 89 1019.2
20260902224526 69 63 0.0 5.0 0.00 0.17 0.11 89 1019.4
20260902223036 69 63 0.0 4.0 0.00 0.17 0.11 88 1019.4
20260902221625 69 66 0.0 8.0 0.00 0.17 0.11 88 1019.6
20260902220032 69 78 2.0 6.0 0.00 0.17 0.11 87 1019.5
20260902214525 69 65 0.0 8.0 0.00 0.18 0.11 87 1019.3
20260902213025 70 82 0.0 6.0 0.00 0.18 0.11 86 1019.2
20260902211523 70 71 0.0 8.0 0.00 0.18 0.11 86 1019.1
20260902210023 70 65 1.0 4.0 0.00 0.18 0.11 85 1019.1
20260902204522 71 66 0.0 3.0 0.00 0.19 0.11 83 1019.2
20260902203021 71 53 0.0 5.0 0.00 0.19 0.11 82 1019.4
20260902201521 71 80 2.0 6.0 0.00 0.19 0.11 81 1019.1
20260902200025 72 73 2.0 10.0 0.00 0.19 0.11 81 1019.1
20260902194535 72 73 1.0 7.0 0.00 0.19 0.11 80 1019.1
20260902193020 72 66 2.0 9.0 0.00 0.19 0.11 79 1019.2
20260902191520 72 68 1.0 10.0 0.00 0.19 0.11 79 1019.4
20260902190019 72 72 0.0 8.0 0.00 0.19 0.11 78 1019.7
20260902184525 72 83 1.0 8.0 0.01 0.20 0.11 80 1019.7
20260902183018 71 67 1.0 9.0 0.01 0.20 0.11 79 1020.0
20260902181518 71 69 0.0 7.0 0.01 0.20 0.11 79 1020.1
20260902180019 71 69 1.0 5.0 0.01 0.20 0.11 79 1019.9
20260902174517 72 83 0.0 8.0 0.00 0.19 0.10 79 1019.9
20260902173024 72 69 1.0 9.0 0.00 0.19 0.10 78 1019.8
20260902171516 72 45 1.0 6.0 0.01 0.19 0.10 78 1020.0
20260902170019 72 76 3.0 9.0 0.01 0.19 0.10 78 1020.1
20260902164515 72 101 1.0 9.0 0.01 0.19 0.10 77 1020.0
20260902163014 73 67 2.0 11.0 0.01 0.19 0.10 77 1019.9
20260902161513 73 65 0.0 10.0 0.00 0.18 0.09 76 1020.2
20260902160015 73 78 1.0 8.0 0.01 0.18 0.09 78 1020.3
20260902154513 73 66 2.0 7.0 0.01 0.18 0.09 76 1020.4
20260902153012 73 84 0.0 9.0 0.01 0.18 0.09 76 1020.5
20260902151513 73 88 0.0 6.0 0.01 0.18 0.09 77 1020.5
20260902150008 72 75 3.0 10.0 0.00 0.17 0.08 75 1020.4
20260902144507 72 55 1.0 10.0 0.01 0.18 0.08 75 1020.3
20260902143006 72 87 2.0 6.0 0.01 0.18 0.08 74 1020.2
20260902141503 72 57 2.0 5.0 0.01 0.18 0.08 74 1020.0
20260902140004 72 80 3.0 10.0 0.01 0.18 0.08 76 1019.8
20260902134610 71 74 2.0 8.0 0.00 0.17 0.07 78 1019.6
20260902133103 70 84 0.0 6.0 0.01 0.17 0.07 81 1019.5
20260902131603 70 71 3.0 10.0 0.01 0.17 0.07 80 1019.3
20260902130053 70 47 3.0 9.0 0.01 0.17 0.07 79 1019.3
20260902124551 69 65 2.0 7.0 0.01 0.18 0.07 82 1019.5
20260902123047 68 79 2.0 9.0 0.00 0.17 0.06 83 1019.4
20260902121548 68 75 2.0 8.0 0.01 0.17 0.06 86 1019.6
20260902120044 67 46 1.0 9.0 0.01 0.17 0.06 87 1019.7
20260902114544 66 71 0.0 6.0 0.01 0.18 0.06 89 1019.8
20260902113046 66 74 3.0 8.0 0.01 0.18 0.06 90 1019.7
20260902111539 66 61 1.0 5.0 0.00 0.17 0.05 89 1019.7
20260902110041 65 50 1.0 5.0 0.00 0.17 0.05 89 1019.5
20260902104553 65 33 1.0 4.0 0.01 0.18 0.05 88 1019.3
20260902103034 65 63 0.0 6.0 0.01 0.18 0.05 86 1019.1
20260902101533 65 27 1.0 5.0 0.01 0.18 0.05 86 1019.0
20260902100032 65 54 1.0 5.0 0.01 0.18 0.05 85 1018.9
20260902094531 65 59 0.0 3.0 0.01 0.18 0.04 86 1018.8
20260902093033 65 79 2.0 7.0 0.01 0.18 0.04 85 1018.7
20260902091528 65 57 0.0 4.0 0.01 0.18 0.04 85 1018.6
20260902090029 65 57 1.0 5.0 0.01 0.18 0.04 84 1018.5
20260902084526 65 64 1.0 5.0 0.00 0.18 0.03 83 1018.6
20260902083024 65 80 2.0 7.0 0.00 0.18 0.03 84 1018.5
20260902081524 65 35 1.0 8.0 0.01 0.18 0.03 85 1018.5
20260902080023 65 11 1.0 7.0 0.01 0.18 0.03 87 1018.5
20260902074521 65 55 2.0 6.0 0.01 0.19 0.03 88 1018.3
20260902073020 65 43 1.0 4.0 0.01 0.19 0.03 89 1018.1